SCP
0 0 0 0 0 0 0 0 0 0 0 0 0 0 0 0 0 0 0 0 0 0 0 0 0 -0 0 0 -0 0 0 0 0 0 0 0 0 0 0 0 0 0 0
0 0 0 0 0 0 0 0 0 0 0 0 0 0 0 0 0 0 0 0 0 0 0 0 0 -0 -0 -0 0 0 0 0 0 0 0 0 0 0 0 0 0 0 0
0 0 0 0 0 0 0 0 0 0 0 0 0 0 0 0 0 0 0 0 -0 0 0 0 0 0 -0 -0 -0 -0 -0 -0 0 0 0 0 0 0 0 0 0 0 0
0 0 0 0 0 0 0 0 0 0 0 0 0 0 0 0 0 0 0 0 -0 0 0 0 0 0 -0 -0 -0 -0 -0 -0 0 -0 -0 -0 0 0 0 0 0 0 0
0 0 0 0 0 0 0 0 0 0 0 0 0 0 0 0 0 0 0 0 -0 -0 0 0 0 0 0 -0 -0 -0 -0 -0 -0 -0 -0 -0 0 0 0 0 0 0 0
0 0 0 0 0 0 0 0 0 0 0 0 0 0 0 0 0 0 0 0 0 -0 -0 0 0 0 0 0 0 -0 0 -0 -0 -0 0 -0 -0 -0 0 0 0 0 0
0 0 0 0 0 0 0 0 0 0 0 0 0 0 0 0 0 0 0 0 0 0 -0 0 0 0 0 0 0 0 -0 0 -0 -0 -0 0 0 0 -0 0 0 0 0
0 0 0 0 0 0 0 0 0 0 0 0 0 0 0 0 0 0 0 0 0 0 -0 0 0 0 0 0 -0 0 0 -0 -0 -0 0 0 0 0 -0 -0 0 0 0
0 0 0 0 0 0 0 0 0 0 0 0 0 0 0 0 0 0 0 0 0 0 -0 0 0 0 0 0 0 0 0 0 0 -0 0 0 -0 -0 0 0 0 0 0
0 0 0 0 0 0 0 0 0 0 0 0 0 0 0 0 0 0 0 0 0 0 0 0 0 0 0 0 0 0 0 0 0 0 -0 0 -0 -0 0 0 0 0 0
0 0 0 0 0 0 0 0 0 0 0 0 0 0 0 0 0 0 0 0 0 0 0 0 0 0 0 0 0 0 0 0 0 0 0 -0 -0 -0 -0 0 0 0 0
0 0 0 0 0 0 0 0 0 0 0 0 0 0 0 0 0 0 0 0 0 0 0 0 0 0 0 0 0 0 0 0 0 0 0 0 0 0 0 0 -0 0 0
0 0 0 0 0 0 0 0 0 0 0 0 0 0 0 0 0 0 0 0 0 0 0 0 0 0 0 0 0 0 0 0 0 0 0 0 0 0 0 0 0 0 0
0 0 0 0 0 0 0 0 0 0 0 0 0 0 0 0 0 0 0 0 0 0 0 0 0 0 0 0 0 0 0 0 0 0 0 0 0 0 0 0 0 0 0
0 0 0 0 0 0 0 0 0 0 0 0 0 0 0 0 0 0 0 0 0 0 0 0 0 0 0 0 0 0 0 0 0 0 0 0 0 0 0 0 0 0 0
0 0 0 0 0 0 0 0 0 0 0 0 0 0 0 0 0 0 0 0 0 0 0 0 0 0 0 0 0 0 0 0 0 0 0 0 0 0 0 0 0 0 0
-0 -0 0 0 0 0 0 0 0 0 0 0 0 0 0 0 0 0 0 0 0 0 0 0 0 0 0 0 0 0 0 0 0 0 0 0 0 0 0 0 0 0 0
0 0 0 0 0 0 0 0 0 0 0 0 0 0 0 0 0 0 0 0 0 0 0 0 0 0 0 0 0 0 0 0 0 0 0 0 0 0 0 0 0 0 0
0 0 0 0 0 0 0 0 0 0 0 0 0 0 0 0 0 0 0 0 0 0 0 0 0 0 0 0 0 0 0 0 0 0 0 0 0 0 0 0 0 0 0
0 0 0 0 0 0 0 0 0 0 0 0 0 0 0 0 0 0 0 0 0 0 0 0 0 0 0 0 0 0 0 0 0 0 0 0 0 0 0 0 0 0 0
0 0 0 0 0 0 0 0 0 0 0 0 0 0 0 0 0 0 0 0 0 0 0 0 0 0 0 0 0 0 0 0 0 0 0 0 0 0 0 0 0 0 0
0 0 0 0 0 0 0 0 0 0 0 0 0 0 0 0 0 0 0 0 0 0 0 0 0 0 0 0 0 0 0 0 0 0 0 0 0 0 0 0 0 0 0
0 0 0 0 0 0 0 0 0 0 0 0 0 0 0 0 0 0 0 0 0 0 0 0 0 0 0 0 0 0 0 0 0 0 0 0 0 0 0 0 0 0 0
0 0 0 0 0 0 0 -0 -0 -0 -0 0 0 0 0 0 0 0 0 0 0 0 0 0 0 0 0 0 0 0 0 0 0 0 0 0 0 0 0 0 0 0 0
0 0 0 0 0 0 0 0 -0 -0 -0 -0 -0 -0 -0 -0 -0 -0 0 0 0 0 0 0 0 0 0 0 0 0 0 0 0 0 0 0 0 0 0 0 0 0 0
0 0 0 0 0 0 0 -0 -0 -0 -0 -0 -0 -0 -0 -0 -0 -0 -0 0 0 0 0 0 0 0 0 0 0 0 0 0 0 0 0 0 0 0 0 0 0 0 0
Wind_Speed_500mb
23 26 21 30 37 34 39 39 32 27 20 17 18 20 19 20 22 17 10 4 10 22 23 17 16 21 21 17 13 31 35 34 26 29 33 33 36 22 24 25 26 24 23
15 14 8 23 34 33 39 36 31 23 17 17 17 17 16 18 15 10 4 6 18 23 18 20 19 20 18 16 24 35 30 28 27 32 34 26 42 45 55 25 43 35 37
20 12 5 23 32 34 36 33 28 20 14 16 17 14 13 16 8 5 3 11 22 22 16 18 19 19 19 18 25 22 27 25 23 30 17 15 16 41 56 51 55 54 41
23 10 8 24 33 35 35 31 23 15 14 13 14 13 11 9 4 0 6 16 23 20 10 13 23 15 17 16 21 21 19 26 27 13 11 3 42 28 29 55 51 54 57
29 14 6 22 32 36 35 29 19 12 13 11 13 12 9 5 2 4 9 18 22 19 9 12 18 18 14 16 20 19 24 20 17 1 15 15 29 35 43 54 58 45 48
30 16 7 18 31 35 30 22 15 11 11 12 11 11 9 5 6 7 9 16 20 16 8 5 14 22 19 17 15 22 23 18 15 6 2 3 14 31 45 55 69 67 57
32 21 8 19 26 27 24 18 11 8 8 12 11 11 9 8 11 9 11 13 17 15 10 7 13 19 29 24 21 16 21 17 14 13 8 11 14 26 42 65 68 68 61
39 26 12 15 18 15 13 10 6 7 8 11 11 12 12 10 16 16 14 16 18 18 19 17 17 24 26 25 21 19 19 21 15 16 13 11 14 31 45 64 67 63 58
49 35 20 9 8 10 10 9 8 9 10 12 12 12 14 13 17 20 20 16 18 22 19 15 21 26 29 25 24 23 21 17 17 17 15 11 18 37 48 45 57 76 60
48 40 27 13 1 5 8 11 12 12 12 13 14 14 15 19 18 22 20 19 15 18 18 16 17 15 22 25 24 24 20 20 21 24 19 18 21 34 43 48 62 63 49
47 42 34 23 12 7 8 10 12 15 16 15 16 15 17 20 22 22 24 19 20 18 20 20 22 23 22 24 28 25 25 23 24 28 22 21 24 31 43 49 53 61 43
46 43 38 31 22 16 11 10 11 16 19 20 19 17 17 21 24 26 26 29 26 24 21 22 27 30 30 32 34 34 32 29 27 32 35 28 25 29 35 46 61 66 57
49 46 42 42 37 32 24 17 14 17 21 24 24 20 19 20 23 26 30 31 32 29 27 29 32 35 37 35 34 36 41 40 39 36 41 43 41 41 40 39 47 59 63
50 49 49 48 45 42 37 29 24 22 20 21 23 24 22 22 22 24 29 34 36 39 38 37 37 38 40 46 45 43 42 45 46 46 44 44 51 53 49 49 50 49 57
47 49 49 49 47 45 43 38 34 32 28 21 19 23 27 29 29 28 28 31 37 42 44 47 48 47 45 45 46 48 48 49 51 51 53 53 55 58 57 55 56 57 61
39 41 43 44 47 48 48 45 41 39 36 32 24 21 23 29 35 37 37 37 37 39 44 49 54 58 57 53 50 49 54 56 55 56 53 54 59 64 65 68 67 65 63
33 39 43 45 45 45 46 45 43 41 39 36 32 28 26 26 29 35 41 44 45 44 47 46 51 58 62 61 60 57 55 59 61 64 60 58 55 60 67 68 72 74 72
33 38 40 40 41 42 41 41 40 40 40 41 39 36 33 32 31 31 35 41 47 51 52 53 52 54 59 64 65 63 63 64 64 68 72 69 65 63 61 67 75 79 79
32 34 34 35 37 40 42 41 41 43 44 43 43 44 42 39 39 38 37 38 43 49 56 57 57 59 60 58 59 67 73 74 76 71 70 72 75 74 69 70 75 75 80
31 31 33 32 33 39 42 42 42 47 51 52 50 47 47 46 44 44 43 42 43 48 52 58 62 63 67 64 61 65 69 77 83 85 82 80 79 80 78 82 83 82 80
27 27 30 34 38 40 42 43 45 48 50 51 51 52 54 52 49 48 48 48 46 45 48 54 58 62 66 68 69 67 73 78 82 89 94 94 91 89 87 85 87 92 84
24 27 30 32 35 40 45 47 49 50 52 53 54 53 52 51 55 58 55 52 53 55 52 50 53 55 58 61 64 66 70 76 85 90 92 93 93 95 91 92 92 93 86
26 29 33 35 38 43 47 50 52 55 57 58 60 60 59 58 58 57 57 59 58 57 58 59 57 55 53 54 54 58 60 68 79 86 90 90 87 86 90 91 87 86 90
27 32 37 42 47 50 53 56 60 64 65 66 67 69 70 70 67 65 63 61 58 61 61 60 62 63 61 59 56 53 53 55 63 75 86 87 87 87 85 85 89 91 95
32 38 45 50 53 57 61 64 68 73 78 80 78 77 77 78 78 75 73 71 64 60 58 60 61 61 64 61 57 57 60 61 60 59 64 75 79 83 87 89 91 93 95
40 47 54 61 66 70 73 71 74 78 82 86 88 87 86 85 83 85 89 80 76 70 65 57 53 55 62 64 63 61 61 63 58 63 71 74 75 79 79 83 87 88 90
Wind_Direction_500mb
317 306 275 221 209 209 203 203 207 214 224 254 280 301 309 315 321 326 336 28 107 124 120 111 106 107 123 143 150 145 134 133 131 110 90 73 82 120 139 127 140 141 152
345 329 273 207 201 200 192 195 199 206 234 264 284 301 303 319 312 330 17 114 133 132 123 126 121 123 143 157 152 151 142 143 140 134 116 83 73 89 120 124 122 134 134
353 339 226 184 184 185 188 190 194 207 232 267 286 296 302 325 320 344 98 143 146 144 125 131 143 152 163 158 150 166 165 159 144 145 129 122 101 104 120 127 120 102 122
5 358 190 181 174 177 179 185 190 214 243 263 286 288 300 323 318 127 142 151 154 148 134 130 157 162 160 169 161 161 180 173 156 154 171 129 147 117 115 132 134 133 129
6 10 173 176 169 174 178 183 191 220 252 267 283 280 296 290 215 163 146 158 162 157 135 129 151 159 152 166 163 168 186 188 184 151 168 126 158 150 143 134 140 141 143
13 20 131 166 171 173 179 187 200 219 249 272 280 274 288 247 193 163 149 166 173 178 185 200 174 181 162 155 181 186 186 193 202 270 228 128 196 183 164 152 144 148 147
27 29 97 155 173 179 181 192 214 239 254 284 282 268 270 238 209 195 183 178 191 202 217 227 191 171 177 180 199 204 198 200 237 217 267 255 221 208 184 158 148 152 153
33 44 71 152 167 189 204 221 247 268 278 294 284 267 256 243 223 218 207 206 212 225 238 244 234 189 187 195 204 196 216 239 237 242 220 252 233 211 204 187 182 167 162
37 40 80 122 173 194 251 270 290 283 287 297 285 267 257 253 233 230 231 237 228 222 230 234 221 207 200 198 205 210 221 236 245 207 208 223 212 198 195 200 189 177 169
47 51 51 68 315 222 242 278 291 282 286 300 296 279 264 254 249 238 237 239 236 217 215 217 203 204 205 203 208 210 219 231 220 209 218 218 213 206 208 209 212 204 203
44 52 54 45 26 339 288 281 280 280 290 294 293 291 276 264 258 251 242 238 233 229 230 219 221 223 222 218 220 221 220 227 224 207 209 226 215 219 217 218 211 201 210
44 49 50 47 39 25 354 320 292 278 278 275 279 286 283 271 262 255 250 243 241 241 240 233 235 236 231 231 235 233 228 232 229 222 214 213 218 229 220 214 214 220 220
43 45 48 44 37 31 25 11 338 306 286 279 281 281 288 291 281 268 259 252 247 246 248 248 248 245 240 240 241 235 229 237 239 232 229 227 229 231 233 229 230 229 232
39 37 39 39 35 30 27 25 16 353 323 291 279 279 273 275 278 272 264 259 252 247 247 247 247 248 248 245 245 246 242 237 239 239 233 233 233 234 238 236 237 237 234
32 28 27 27 26 26 24 23 21 13 3 340 304 278 268 265 264 265 268 266 261 256 251 250 248 248 246 245 246 247 247 246 244 243 241 241 239 233 233 238 240 242 241
19 17 17 16 17 17 16 16 15 13 10 2 349 325 295 275 268 266 264 262 261 259 253 256 252 248 247 246 248 249 251 249 250 245 246 247 245 239 241 242 241 242 244
14 9 7 7 5 4 4 6 9 7 3 3 358 345 328 311 292 277 269 267 265 264 261 259 257 253 249 249 248 246 252 251 249 248 250 250 250 248 246 244 244 244 245
7 5 2 0 357 354 353 351 351 351 352 356 357 352 341 330 320 305 289 279 271 266 264 265 261 259 254 251 249 250 250 254 249 249 250 252 251 249 249 248 249 248 250
355 357 357 357 358 355 351 348 346 345 344 345 343 345 346 340 332 324 313 298 287 276 269 265 264 263 260 256 255 254 252 255 255 254 252 252 251 250 249 251 252 255 254
351 358 3 3 2 2 2 1 354 350 350 349 345 341 336 335 335 333 328 320 309 293 283 273 267 264 264 261 258 257 260 258 255 255 256 253 253 255 254 251 252 255 257
352 0 3 4 4 2 2 1 359 0 359 355 353 348 339 331 329 326 325 326 322 314 300 287 276 271 268 265 264 260 255 257 259 258 257 256 256 256 256 256 255 255 258
349 352 355 357 357 356 353 354 352 351 349 349 348 347 347 345 338 328 321 320 320 318 317 312 297 284 276 272 270 267 264 259 260 260 261 261 259 259 258 255 256 258 260
339 341 345 348 348 347 346 343 342 338 337 335 336 336 336 337 338 337 335 326 319 320 320 317 312 309 301 289 276 270 267 263 260 261 264 264 263 261 259 256 254 253 252
328 331 333 333 333 332 333 332 330 326 324 324 325 325 325 325 327 327 329 329 332 325 317 315 316 311 307 307 305 295 282 271 266 263 261 265 264 263 259 256 252 252 253
316 320 322 321 321 320 320 321 319 316 315 315 315 315 314 315 315 315 317 318 319 322 323 319 309 312 307 304 305 299 292 286 279 275 272 266 263 263 260 256 254 253 253
311 314 314 314 315 315 315 316 312 310 309 308 308 308 308 308 307 307 306 305 306 307 308 310 312 299 293 296 297 295 294 287 279 277 276 272 268 265 265 262 257 255 255
Wind_Speed_850mb
23 26 21 30 37 34 39 39 32 27 20 17 18 20 19 20 22 17 10 4 10 22 23 17 16 21 21 17 13 31 35 34 26 29 33 33 36 22 24 25 26 24 23
15 14 8 23 34 33 39 36 31 23 17 17 17 17 16 18 15 10 4 6 18 23 18 20 19 20 18 16 24 35 30 28 27 32 34 26 42 45 55 25 43 35 37
20 12 5 23 32 34 36 33 28 20 14 16 17 14 13 16 8 5 3 11 22 22 16 18 19 19 19 18 25 22 27 25 23 30 17 15 16 41 56 51 55 54 41
23 10 8 24 33 35 35 31 23 15 14 13 14 13 11 9 4 0 6 16 23 20 10 13 23 15 17 16 21 21 19 26 27 13 11 3 42 28 29 55 51 54 57
29 14 6 22 32 36 35 29 19 12 13 11 13 12 9 5 2 4 9 18 22 19 9 12 18 18 14 16 20 19 24 20 17 1 15 15 29 35 43 54 58 45 48
30 16 7 18 31 35 30 22 15 11 11 12 11 11 9 5 6 7 9 16 20 16 8 5 14 22 19 17 15 22 23 18 15 6 2 3 14 31 45 55 69 67 57
32 21 8 19 26 27 24 18 11 8 8 12 11 11 9 8 11 9 11 13 17 15 10 7 13 19 29 24 21 16 21 17 14 13 8 11 14 26 42 65 68 68 61
39 26 12 15 18 15 13 10 6 7 8 11 11 12 12 10 16 16 14 16 18 18 19 17 17 24 26 25 21 19 19 21 15 16 13 11 14 31 45 64 67 63 58
49 35 20 9 8 10 10 9 8 9 10 12 12 12 14 13 17 20 20 16 18 22 19 15 21 26 29 25 24 23 21 17 17 17 15 11 18 37 48 45 57 76 60
48 40 27 13 1 5 8 11 12 12 12 13 14 14 15 19 18 22 20 19 15 18 18 16 17 15 22 25 24 24 20 20 21 24 19 18 21 34 43 48 62 63 49
47 42 34 23 12 7 8 10 12 15 16 15 16 15 17 20 22 22 24 19 20 18 20 20 22 23 22 24 28 25 25 23 24 28 22 21 24 31 43 49 53 61 43
46 43 38 31 22 16 11 10 11 16 19 20 19 17 17 21 24 26 26 29 26 24 21 22 27 30 30 32 34 34 32 29 27 32 35 28 25 29 35 46 61 66 57
49 46 42 42 37 32 24 17 14 17 21 24 24 20 19 20 23 26 30 31 32 29 27 29 32 35 37 35 34 36 41 40 39 36 41 43 41 41 40 39 47 59 63
50 49 49 48 45 42 37 29 24 22 20 21 23 24 22 22 22 24 29 34 36 39 38 37 37 38 40 46 45 43 42 45 46 46 44 44 51 53 49 49 50 49 57
47 49 49 49 47 45 43 38 34 32 28 21 19 23 27 29 29 28 28 31 37 42 44 47 48 47 45 45 46 48 48 49 51 51 53 53 55 58 57 55 56 57 61
39 41 43 44 47 48 48 45 41 39 36 32 24 21 23 29 35 37 37 37 37 39 44 49 54 58 57 53 50 49 54 56 55 56 53 54 59 64 65 68 67 65 63
33 39 43 45 45 45 46 45 43 41 39 36 32 28 26 26 29 35 41 44 45 44 47 46 51 58 62 61 60 57 55 59 61 64 60 58 55 60 67 68 72 74 72
33 38 40 40 41 42 41 41 40 40 40 41 39 36 33 32 31 31 35 41 47 51 52 53 52 54 59 64 65 63 63 64 64 68 72 69 65 63 61 67 75 79 79
32 34 34 35 37 40 42 41 41 43 44 43 43 44 42 39 39 38 37 38 43 49 56 57 57 59 60 58 59 67 73 74 76 71 70 72 75 74 69 70 75 75 80
31 31 33 32 33 39 42 42 42 47 51 52 50 47 47 46 44 44 43 42 43 48 52 58 62 63 67 64 61 65 69 77 83 85 82 80 79 80 78 82 83 82 80
27 27 30 34 38 40 42 43 45 48 50 51 51 52 54 52 49 48 48 48 46 45 48 54 58 62 66 68 69 67 73 78 82 89 94 94 91 89 87 85 87 92 84
24 27 30 32 35 40 45 47 49 50 52 53 54 53 52 51 55 58 55 52 53 55 52 50 53 55 58 61 64 66 70 76 85 90 92 93 93 95 91 92 92 93 86
26 29 33 35 38 43 47 50 52 55 57 58 60 60 59 58 58 57 57 59 58 57 58 59 57 55 53 54 54 58 60 68 79 86 90 90 87 86 90 91 87 86 90
27 32 37 42 47 50 53 56 60 64 65 66 67 69 70 70 67 65 63 61 58 61 61 60 62 63 61 59 56 53 53 55 63 75 86 87 87 87 85 85 89 91 95
32 38 45 50 53 57 61 64 68 73 78 80 78 77 77 78 78 75 73 71 64 60 58 60 61 61 64 61 57 57 60 61 60 59 64 75 79 83 87 89 91 93 95
40 47 54 61 66 70 73 71 74 78 82 86 88 87 86 85 83 85 89 80 76 70 65 57 53 55 62 64 63 61 61 63 58 63 71 74 75 79 79 83 87 88 90
Wind_Direction_850mb
317 306 275 221 209 209 203 203 207 214 224 254 280 301 309 315 321 326 336 28 107 124 120 111 106 107 123 143 150 145 134 133 131 110 90 73 82 120 139 127 140 141 152
345 329 273 207 201 200 192 195 199 206 234 264 284 301 303 319 312 330 17 114 133 132 123 126 121 123 143 157 152 151 142 143 140 134 116 83 73 89 120 124 122 134 134
353 339 226 184 184 185 188 190 194 207 232 267 286 296 302 325 320 344 98 143 146 144 125 131 143 152 163 158 150 166 165 159 144 145 129 122 101 104 120 127 120 102 122
5 358 190 181 174 177 179 185 190 214 243 263 286 288 300 323 318 127 142 151 154 148 134 130 157 162 160 169 161 161 180 173 156 154 171 129 147 117 115 132 134 133 129
6 10 173 176 169 174 178 183 191 220 252 267 283 280 296 290 215 163 146 158 162 157 135 129 151 159 152 166 163 168 186 188 184 151 168 126 158 150 143 134 140 141 143
13 20 131 166 171 173 179 187 200 219 249 272 280 274 288 247 193 163 149 166 173 178 185 200 174 181 162 155 181 186 186 193 202 270 228 128 196 183 164 152 144 148 147
27 29 97 155 173 179 181 192 214 239 254 284 282 268 270 238 209 195 183 178 191 202 217 227 191 171 177 180 199 204 198 200 237 217 267 255 221 208 184 158 148 152 153
33 44 71 152 167 189 204 221 247 268 278 294 284 267 256 243 223 218 207 206 212 225 238 244 234 189 187 195 204 196 216 239 237 242 220 252 233 211 204 187 182 167 162
37 40 80 122 173 194 251 270 290 283 287 297 285 267 257 253 233 230 231 237 228 222 230 234 221 207 200 198 205 210 221 236 245 207 208 223 212 198 195 200 189 177 169
47 51 51 68 315 222 242 278 291 282 286 300 296 279 264 254 249 238 237 239 236 217 215 217 203 204 205 203 208 210 219 231 220 209 218 218 213 206 208 209 212 204 203
44 52 54 45 26 339 288 281 280 280 290 294 293 291 276 264 258 251 242 238 233 229 230 219 221 223 222 218 220 221 220 227 224 207 209 226 215 219 217 218 211 201 210
44 49 50 47 39 25 354 320 292 278 278 275 279 286 283 271 262 255 250 243 241 241 240 233 235 236 231 231 235 233 228 232 229 222 214 213 218 229 220 214 214 220 220
43 45 48 44 37 31 25 11 338 306 286 279 281 281 288 291 281 268 259 252 247 246 248 248 248 245 240 240 241 235 229 237 239 232 229 227 229 231 233 229 230 229 232
39 37 39 39 35 30 27 25 16 353 323 291 279 279 273 275 278 272 264 259 252 247 247 247 247 248 248 245 245 246 242 237 239 239 233 233 233 234 238 236 237 237 234
32 28 27 27 26 26 24 23 21 13 3 340 304 278 268 265 264 265 268 266 261 256 251 250 248 248 246 245 246 247 247 246 244 243 241 241 239 233 233 238 240 242 241
19 17 17 16 17 17 16 16 15 13 10 2 349 325 295 275 268 266 264 262 261 259 253 256 252 248 247 246 248 249 251 249 250 245 246 247 245 239 241 242 241 242 244
14 9 7 7 5 4 4 6 9 7 3 3 358 345 328 311 292 277 269 267 265 264 261 259 257 253 249 249 248 246 252 251 249 248 250 250 250 248 246 244 244 244 245
7 5 2 0 357 354 353 351 351 351 352 356 357 352 341 330 320 305 289 279 271 266 264 265 261 259 254 251 249 250 250 254 249 249 250 252 251 249 249 248 249 248 250
355 357 357 357 358 355 351 348 346 345 344 345 343 345 346 340 332 324 313 298 287 276 269 265 264 263 260 256 255 254 252 255 255 254 252 252 251 250 249 251 252 255 254
351 358 3 3 2 2 2 1 354 350 350 349 345 341 336 335 335 333 328 320 309 293 283 273 267 264 264 261 258 257 260 258 255 255 256 253 253 255 254 251 252 255 257
352 0 3 4 4 2 2 1 359 0 359 355 353 348 339 331 329 326 325 326 322 314 300 287 276 271 268 265 264 260 255 257 259 258 257 256 256 256 256 256 255 255 258
349 352 355 357 357 356 353 354 352 351 349 349 348 347 347 345 338 328 321 320 320 318 317 312 297 284 276 272 270 267 264 259 260 260 261 261 259 259 258 255 256 258 260
339 341 345 348 348 347 346 343 342 338 337 335 336 336 336 337 338 337 335 326 319 320 320 317 312 309 301 289 276 270 267 263 260 261 264 264 263 261 259 256 254 253 252
328 331 333 333 333 332 333 332 330 326 324 324 325 325 325 325 327 327 329 329 332 325 317 315 316 311 307 307 305 295 282 271 266 263 261 265 264 263 259 256 252 252 253
316 320 322 321 321 320 320 321 319 316 315 315 315 315 314 315 315 315 317 318 319 322 323 319 309 312 307 304 305 299 292 286 279 275 272 266 263 263 260 256 254 253 253
311 314 314 314 315 315 315 316 312 310 309 308 308 308 308 308 307 307 306 305 306 307 308 310 312 299 293 296 297 295 294 287 279 277 276 272 268 265 265 262 257 255 255